TimeEDT,TemperatureF,Dew PointF,Humidity,Sea Level PressureIn,VisibilityMPH,Wind Direction,Wind SpeedMPH,Gust SpeedMPH,PrecipitationIn,Events,Conditions,WindDirDegrees,DateUTC
7:00 AM,60.8,59.0,94,29.73,3.0,SW,2.3,-,N/A,,Light Drizzle,230,2012-10-25 11:00:00
7:41 AM,-9999,-9999,N/A,-9999,2.5,ENE,4.6,-,N/A,,Overcast,70,2012-10-25 11:41:00
8:00 AM,61,60,93,29.69,2,South,8.1,,,Rain,Light Drizzle,170,2012-10-25 12:00:00
8:00 AM,60.8,59.0,94,29.69,2.5,South,8.1,-,N/A,,Overcast,170,2012-10-25 12:00:00
8:55 AM,-9999,-9999,N/A,-9999,2.5,South,9.2,-,N/A,Rain-Thunderstorm,Light Thunderstorms and Rain,180,2012-10-25 12:55:00
9:00 AM,62.6,59.0,88,29.66,2.5,South,11.5,-,N/A,Rain-Thunderstorm,Light Thunderstorms and Rain,170,2012-10-25 13:00:00
9:26 AM,-9999,-9999,N/A,-9999,0.4,SSW,17.3,24.2,N/A,Fog-Rain-Thunderstorm,Heavy Thunderstorms and Rain,210,2012-10-25 13:26:00
9:37 AM,-9999,-9999,N/A,-9999,2.0,WSW,15.0,-,N/A,Rain-Thunderstorm,Heavy Thunderstorms and Rain,250,2012-10-25 13:37:00
9:53 AM,-9999,-9999,N/A,-9999,4.0,South,15.0,-,N/A,Rain-Thunderstorm,Light Thunderstorms and Rain,190,2012-10-25 13:53:00
10:00 AM,59.0,57.2,94,29.67,10.0,South,9.2,-,N/A,Rain-Thunderstorm,Light Thunderstorms and Rain,170,2012-10-25 14:00:00
10:38 AM,-9999,-9999,N/A,-9999,15.0,SSE,8.1,-,N/A,,Mostly Cloudy,150,2012-10-25 14:38:00
11:00 AM,60.8,57.2,88,29.65,15.0,SSE,8.1,-,N/A,,Mostly Cloudy,160,2012-10-25 15:00:00
11:46 AM,-9999,-9999,N/A,-9999,6.0,SSE,9.2,-,N/A,,Overcast,150,2012-10-25 15:46:00
12:00 PM,62.6,60.8,94,29.61,6.0,SSE,11.5,-,N/A,,Overcast,160,2012-10-25 16:00:00
1:00 PM,64.4,60.8,88,29.59,12.0,South,11.5,17.3,N/A,,Overcast,180,2012-10-25 17:00:00
1:52 PM,-9999,-9999,N/A,-9999,15.0,South,13.8,19.6,N/A,,Mostly Cloudy,180,2012-10-25 17:52:00
2:00 PM,65,60,81,29.53,15,South,15.0,,,,Partly Cloudy,180,2012-10-25 18:00:00
2:00 PM,66.2,60.8,83,29.53,15.0,South,16.1,23.0,N/A,,Mostly Cloudy,180,2012-10-25 18:00:00
3:00 PM,66.2,60.8,83,29.55,12.0,South,17.3,27.6,N/A,,Overcast,190,2012-10-25 19:00:00
4:00 PM,66.2,59.0,78,29.51,15.0,South,17.3,26.5,N/A,,Overcast,180,2012-10-25 20:00:00
4:37 PM,-9999,-9999,N/A,-9999,12.0,South,18.4,25.3,N/A,Rain-Thunderstorm,Light Thunderstorms and Rain,190,2012-10-25 20:37:00
5:00 PM,66.2,59.0,78,29.50,12.0,SSW,17.3,23.0,N/A,Rain-Thunderstorm,Light Thunderstorms and Rain,200,2012-10-25 21:00:00
5:46 PM,-9999,-9999,N/A,-9999,1.0,SSW,17.3,23.0,N/A,Rain-Thunderstorm,Heavy Thunderstorms and Rain,210,2012-10-25 21:46:00
5:53 PM,-9999,-9999,N/A,-9999,3.0,SSW,8.1,-,N/A,Rain-Thunderstorm,Light Thunderstorms and Rain,210,2012-10-25 21:53:00
6:00 PM,60.8,59.0,94,29.51,6.0,WSW,5.8,-,N/A,Rain-Thunderstorm,Light Thunderstorms and Rain,240,2012-10-25 22:00:00
6:05 PM,-9999,-9999,N/A,-9999,1.0,SSW,5.8,-,N/A,Rain-Thunderstorm,Heavy Thunderstorms and Rain,210,2012-10-25 22:05:00
7:00 PM,59.0,59.0,100,29.52,0.2,SW,18.4,24.2,N/A,Fog-Rain-Thunderstorm,Heavy Thunderstorms and Rain,230,2012-10-25 23:00:00
8:00 PM,59,59,100,29.54,1,SW,8.1,,,Rain-Thunderstorm,Thunderstorms and Rain,220,2012-10-26 00:00:00
8:00 PM,59.0,59.0,100,29.54,1.0,SW,9.2,-,N/A,Rain-Thunderstorm,Heavy Thunderstorms and Rain,220,2012-10-26 00:00:00